Location: Bothwell
(42.3833°S, 147.0000°E)
Time: 03:39:07
(UTC+10:00)

COSMOS 2251 DEB - Visible Passes

Search period start: 21 June 2024 00:00
Search period end: 01 July 2024 00:00
Orbit: 648 x 753 km, 74.0° (Epoch: 19 June)

Date Brightness Start Highest point End Pass type
(mag) Time Alt. Az. Time Alt. Az. Time Alt. Az.
22 Jun ? 18:57:19 10° S 18:58:04 14° S 18:58:04 14° S visible
23 Jun ? 18:01:33 10° SSE 18:02:40 12° SSE 18:02:40 12° SSE visible
23 Jun ? 19:40:20 10° SSW 19:41:34 18° SSW 19:41:34 18° SSW visible
24 Jun ? 18:43:27 10° S 18:46:24 28° SSE 18:46:24 28° SSE visible
24 Jun ? 20:24:18 10° SW 20:25:20 15° SW 20:25:20 15° SW visible
25 Jun ? 17:47:22 10° SSE 17:50:37 16° SE 17:51:39 15° ESE visible
25 Jun ? 19:26:36 10° SSW 19:30:38 53° SW 19:30:38 53° SW visible
26 Jun ? 18:29:35 10° S 18:34:36 43° ESE 18:36:50 28° ENE visible
26 Jun ? 20:10:48 10° SW 20:14:56 24° W 20:15:55 23° WNW visible
27 Jun ? 17:33:17 10° S 17:37:00 19° SE 17:40:41 10° E visible
27 Jun ? 19:12:53 10° SSW 19:18:05 62° WNW 19:23:12 10° N visible
28 Jun ? 18:15:45 10° S 18:20:53 52° ESE 18:25:58 10° NE visible
28 Jun ? 19:57:21 10° SW 20:01:04 20° W 20:04:45 10° NW visible
29 Jun ? 07:04:57 10° ENE 07:05:51 10° E 07:06:45 10° E visible
29 Jun ? 17:19:16 10° S 17:23:21 22° ESE 17:27:24 10° ENE visible
29 Jun ? 18:59:12 10° SSW 19:04:17 51° WNW 19:09:17 10° N visible
30 Jun ? 18:01:55 10° SSW 18:07:10 63° ESE 18:12:18 10° NNE visible
30 Jun ? 19:44:01 10° WSW 19:47:11 16° W 19:50:19 10° NW visible
